Regional Weather Roundup
Issued by NWS

Home | Current Version | Previous Version | Graphics & Text | Print | Product List | Glossary Off
Versions: 1 2 3 4 5 6 7 8 9 10 11 12 13 14 15 16 17 18 19 20 21 22 23 24 25 26 27 28 29 30 31 32 33 34 35 36 37 38 39 40 41 42 43 44 45 46 47 48 49 50

000
ASUS43 KMKX 291121
RWRWI

WISCONSIN REGIONAL WEATHER ROUNDUP
NATIONAL WEATHER SERVICE MILWAUKEE/SULLIVAN WI
500 AM CST THU JAN 29 2015

NOTE: "FAIR" INDICATES FEW OR NO CLOUDS BELOW 12,000 FEET WITH NO
SIGNIFICANT WEATHER AND/OR OBSTRUCTIONS TO VISIBILITY.

WIZ001-002-006>008-014>016-023>028-291200-
NORTHWEST WISCONSIN

CITY           SKY/WX    TMP DP  RH WIND       PRES   REMARKS
SUPERIOR ARPT  CLOUDY    31  25  78 N18G24    29.95R WCI  19
ASHLAND        CLOUDY    31  26  82 NW13      29.88R WCI  21
HAYWARD        CLOUDY    30  26  85 N10G17    29.87R WCI  21
SIREN          CLOUDY    32  28  85 N14G22    29.93R WCI  22
CUMBERLAND     CLOUDY    30  28  93 NW16G23   29.88R WCI  19
RICE LAKE      CLOUDY    31  29  91 NW10G23   29.90R FOG     WCI  22
CHETEK         CLOUDY    30  29  95 NW5       29.88R FOG     WCI  25
LADYSMITH      CLOUDY    29  29  98 NW12      29.86R FOG     WCI  20
EAU CLAIRE     CLOUDY    31  27  85 NW10      29.88R WCI  22
MENOMONIE      CLOUDY    32  30  92 NW13G21   29.90R FOG     WCI  22
NEW RICHMOND   CLOUDY    32  31  96 NW14G22   29.93R WCI  22
OSCEOLA        CLOUDY    33  32  96 NW13G18   29.96R WCI  24
$$

WIZ003>005-009-010-017-018-291200-
NORTH CENTRAL WISCONSIN

CITY           SKY/WX    TMP DP  RH WIND       PRES   REMARKS
MANITOWISH WTR CLOUDY    26  26  99 N10G17    29.77R FOG     WCI  16
ARBOR VITAE    CLOUDY    27  25  94 NW8       29.77R FOG     WCI  18
WOODRUFF       CLOUDY    27  25  94 NW8       29.77R FOG     WCI  18
RHINELANDER    CLOUDY    25  23  92 NW5       29.76S FOG     WCI  19
EAGLE RIVER    CLOUDY    25  24  93 CALM      29.75R FOG
LAND O LAKES   CLOUDY    26  26  99 NW8       29.75R FOG     WCI  18
PHILLIPS       CLOUDY    26  25  98 NW6       29.80R FOG     WCI  19
TOMAHAWK       CLOUDY    26  24  95 CALM      29.79R FOG
MEDFORD        CLOUDY    26  25  96 NW12      29.80R FOG     WCI  15
MERRILL        CLOUDY    26  26  99 NW6       29.78S FOG     WCI  20
$$

WIZ029-030-035-036-043>047-291200-
CENTRAL WISCONSIN

CITY           SKY/WX    TMP DP  RH WIND       PRES   REMARKS
WAUSAU         CLOUDY    26  25  96 NW7       29.78R FOG     WCI  18
MOSINEE        CLOUDY    27  27 100 NW8       29.78S FOG     WCI  18
MARSHFIELD     CLOUDY    28  25  88 NW16      29.81R FOG     WCI  16
STEVENS POINT  CLOUDY    25  24  98 NW8       29.79R FOG     WCI  16
WAUPACA        CLOUDY    31  27  84 NW9       29.78R HAZE    WCI  23
WAUTOMA        CLOUDY    28  28 100 NW9       29.78S FOG     WCI  20
WISC RAPIDS    CLOUDY    28  24  85 NW10      29.82R FOG     WCI  19
CAMP DOUGLAS   CLOUDY    28  28 100 NW15      29.83R WCI  17
$$

WIZ011>013-019>022-031-037>040-048>050-291200-
NORTHEAST WISCONSIN

CITY           SKY/WX    TMP DP  RH WIND       PRES   REMARKS
ANTIGO         CLOUDY    24  24  99 NW7       29.76R FOG     WCI  16
SHAWANO        CLOUDY    31  26  82 NW3       29.77F
OCONTO         CLOUDY    30  26  83 MISG      29.76F
STURGEON BAY   CLOUDY    30  23  74 NW8       29.76F WCI  23
GREEN BAY      CLOUDY    30  25  81 NW8       29.76F HAZE    WCI  22
MANITOWOC      MIX PCPN  31  30  96 N5        29.75F FOG     WCI  26
APPLETON       NOT AVBL
CLINTONVILLE   CLOUDY    30  25  80 NW8       29.77F WCI  23
OSHKOSH        CLOUDY    30  24  78 N7        29.75S HAZE    WCI  23
$$

WIZ032>034-041-042-053>061-291200-
SOUTHWEST WISCONSIN

CITY           SKY/WX    TMP DP  RH WIND       PRES   REMARKS
LA CROSSE      CLOUDY    33  28  81 NW14      29.88R WCI  23
SPARTA         CLOUDY    30  28  94 NW15      29.87R FOG     WCI  19
VIROQUA        CLOUDY    30  30 100 N14G21    29.83R WCI  19
BOSCOBEL       CLOUDY    34  28  79 NW13G20   29.84R WCI  25
PRAIRIE DU CHI CLOUDY    32  29  87 NW15      29.86R WCI  22
PLATTEVILLE    CLOUDY    32  31  96 NW15G21   29.79R WCI  22
$$

WIZ056-057-062-063-064-067-068-291200-
SOUTH CENTRAL WISCONSIN

CITY           SKY/WX    TMP DP  RH WIND       PRES   REMARKS
REEDSBURG      CLOUDY    29  28  96 NW12      29.79R FOG     WCI  20
BARABOO/DELLS  CLOUDY    29  28  95 NW12      29.78R FOG     WCI  20
LONE ROCK      CLOUDY    33  28  81 NW10      29.81R WCI  25
MINERAL POINT  CLOUDY    32  32 100 NW16G22   29.77R FOG     WCI  21
MADISON        CLOUDY    31  26  82 N6        29.76R WCI  25
MIDDLETON      CLOUDY    32  29  88 NW7       29.76R WCI  26
WATERTOWN      CLOUDY    30  27  86 NW6       29.73R WCI  24
MONROE         CLOUDY    32  30  93 NW7       29.75R WCI  26
JANESVILLE     CLOUDY    34  28  80 N6        29.72S WCI  29
$$

WIZ051-052-058>065-066-070>072-291200-
SOUTHEAST WISCONSIN

CITY           SKY/WX    TMP DP  RH WIND       PRES   REMARKS
MILWAUKEE      CLOUDY    33  26  75 CALM      29.72F
WAUKESHA       CLOUDY    30  25  80 CALM      29.73S
MILWAUKEE/TIMM CLOUDY    32  27  80 N3        29.73S
RACINE         CLOUDY    33  27  78 CALM      29.73F
BURLINGTON     CLOUDY    31  25  80 N5        29.71F WCI  26
KENOSHA        CLOUDY    32  27  81 N3        29.70F
FOND DU LAC    CLOUDY    30  25  81 N5        29.75R HAZE    WCI  25
SHEBOYGAN      CLOUDY    31  26  82 NW5       29.74F WCI  26
WEST BEND      CLOUDY    30  27  86 CALM      29.73S
JUNEAU         CLOUDY    30  26  86 NW3       29.75R
$$

LSZ147-162-291200-
LAKE SUPERIOR

STATION/POSITION TIME  TEMP    WIND        PRES    WAVE
                       AIR SEA DIR/SP/G            HT/PER
                 (UTC) (F)     (DEG/KT/KT) (MB)    (FT/S)
DEVILS ISLAND    1100   31     330/ 24/ 26 1012.8R
PORT WING        1005   33     320/ 20/ 25 1012.2R
SAXON HARBOR     1000   31     300/  8/ 14 1010.8R
$$

LMZ867-665-643>646-291200-
LAKE MICHIGAN

STATION/POSITION TIME  TEMP    WIND        PRES    WAVE
                       AIR SEA DIR/SP/G            HT/PER
                 (UTC) (F)     (DEG/KT/KT) (MB)    (FT/S)
NORTHPORT PIER   1020   31     300/  2/  6 1008.1F
SISTER BAY       1043   30     310/  8/  9   N/A
KEWAUNEE LAKESHO 1000   30      CALM  /  2 1007.4F
SHEBOYGAN LAKESH 1100   34     280/  4/  4 1007.9F
PORT WASHINGTON  1040   34        CALM     1007.8F
MILWAUKEE LAKESH 1100   33     320/  1/  2   N/A
KENOSHA   LAKESH 1100   33        CALM     1006.1F
$$

TC  - TEMPERATURE IN CELSIUS
VSB - VISIBILITY IN STATUTE MILES
WCI - WIND CHILL INDEX
HX  - HEAT INDEX



USA.gov is the U.S. government's official web portal to all federal, state and local government web resources and services.